CW8248 Weather Reports


Display with metric or nautical units.
time (UTC)temp
F
wind
direction
speed
MPH
gust
MPH
rain 1hr
in
rain 24hr
in
rain mn
in
humidity
%
barometer
mb
20260905111031 52 2 0.0 0.0 0.00 0.02 0.00 77 1017.2
20260905110531 52 2 0.0 0.0 0.00 0.02 0.00 77 1017.1
20260905110033 52 2 0.0 1.0 0.00 0.03 0.00 76 1017.1
20260905105531 52 2 0.0 1.0 0.00 0.03 0.00 76 1017.1
20260905105030 52 2 0.0 0.0 0.00 0.03 0.00 76 1017.1
20260905104530 52 2 0.0 1.0 0.00 0.03 0.00 76 1017.1
20260905104034 52 2 0.0 2.0 0.00 0.03 0.00 76 1017.1
20260905103531 52 2 0.0 2.0 0.00 0.03 0.00 77 1017.1
20260905103029 52 49 0.0 2.0 0.00 0.03 0.00 77 1017.1
20260905102529 52 49 0.0 2.0 0.00 0.03 0.00 78 1017.0
20260905102029 52 50 0.0 0.0 0.00 0.03 0.00 78 1017.0
20260905101529 52 50 0.0 0.0 0.00 0.03 0.00 78 1016.9
20260905101028 52 50 0.0 0.0 0.00 0.03 0.00 78 1017.0
20260905100528 52 50 0.0 0.0 0.00 0.03 0.00 77 1017.1
20260905100028 52 50 0.0 1.0 0.00 0.03 0.00 77 1017.1
20260905095531 52 50 0.0 1.0 0.00 0.03 0.00 77 1017.2
20260905095027 52 50 0.0 1.0 0.00 0.03 0.00 77 1017.2
20260905094528 52 50 0.0 2.0 0.00 0.03 0.00 77 1017.2
20260905094025 52 50 0.0 2.0 0.00 0.03 0.00 77 1017.2
20260905093524 52 64 0.0 5.0 0.00 0.03 0.00 76 1017.2
20260905093025 53 64 3.0 5.0 0.00 0.03 0.00 76 1017.2
20260905092523 53 27 2.0 4.0 0.00 0.03 0.00 76 1017.2
20260905092023 53 61 1.0 2.0 0.00 0.03 0.00 75 1017.2
20260905091523 53 61 0.0 1.0 0.00 0.03 0.00 75 1017.1
20260905091022 53 61 0.0 1.0 0.00 0.03 0.00 75 1017.1
20260905090522 53 61 0.0 1.0 0.00 0.03 0.00 75 1017.0
20260905090023 53 61 0.0 1.0 0.00 0.03 0.00 75 1017.0
20260905085522 53 61 0.0 1.0 0.00 0.03 0.00 75 1017.0
20260905085022 53 61 0.0 1.0 0.00 0.03 0.00 75 1017.0
20260905084521 53 61 0.0 1.0 0.00 0.03 0.00 75 1017.0
20260905084021 53 61 0.0 2.0 0.00 0.03 0.00 75 1017.0
20260905083520 53 61 0.0 2.0 0.00 0.03 0.00 75 1017.0
20260905083024 53 61 0.0 1.0 0.00 0.03 0.00 75 1017.0
20260905082520 53 61 0.0 1.0 0.00 0.03 0.00 75 1016.9
20260905082020 53 61 0.0 1.0 0.00 0.03 0.00 75 1016.9
20260905081521 53 61 0.0 1.0 0.00 0.03 0.00 75 1016.9
20260905081018 53 61 0.0 1.0 0.00 0.03 0.00 75 1016.8
20260905080518 53 61 0.0 4.0 0.00 0.03 0.00 75 1016.8
20260905080017 53 61 0.0 4.0 0.00 0.03 0.00 74 1016.8
20260905075516 53 61 0.0 5.0 0.00 0.03 0.00 73 1016.8
20260905075015 54 61 0.0 8.0 0.00 0.03 0.00 72 1016.7
20260905074523 54 356 3.0 8.0 0.00 0.03 0.00 73 1016.7
20260905074014 54 45 2.0 6.0 0.00 0.03 0.00 72 1016.7
20260905073515 55 52 2.0 6.0 0.00 0.03 0.00 70 1016.6
20260905073012 55 63 2.0 6.0 0.00 0.03 0.00 70 1016.6
20260905072512 54 65 0.0 4.0 0.00 0.03 0.00 70 1016.4
20260905072013 54 67 0.0 4.0 0.00 0.03 0.00 70 1016.5
20260905071517 54 62 0.0 2.0 0.00 0.03 0.00 70 1016.3
20260905071009 54 17 0.0 2.0 0.00 0.03 0.00 71 1016.2
20260905070507 54 6 0.0 4.0 0.00 0.03 0.00 72 1016.2
20260905070008 54 15 0.0 2.0 0.00 0.03 0.03 73 1016.1
20260905065510 54 36 0.0 2.0 0.00 0.03 0.03 73 1016.0
20260905065006 54 45 0.0 2.0 0.00 0.03 0.03 73 1016.1
20260905064507 53 45 0.0 1.0 0.00 0.03 0.03 73 1016.1
20260905064009 53 45 0.0 1.0 0.00 0.03 0.03 74 1016.1
20260905063506 53 45 0.0 1.0 0.00 0.03 0.03 74 1016.1
20260905063006 54 45 0.0 1.0 0.00 0.03 0.03 73 1016.0
20260905062511 54 45 0.0 4.0 0.00 0.03 0.03 72 1016.0
20260905062011 54 45 1.0 6.0 0.00 0.03 0.03 72 1016.0
20260905061509 54 21 1.0 4.0 0.00 0.03 0.03 72 1016.1
20260905061005 55 341 0.0 4.0 0.00 0.03 0.03 71 1016.2
20260905060506 55 331 0.0 5.0 0.00 0.03 0.03 72 1016.2
20260905060005 54 313 2.0 5.0 0.00 0.03 0.03 72 1016.2
20260905055504 54 33 2.0 5.0 0.00 0.03 0.03 72 1016.1
20260905055004 54 3 1.0 6.0 0.00 0.03 0.03 72 1016.0
20260905054506 54 347 1.0 5.0 0.00 0.03 0.03 73 1016.0
20260905054003 54 344 0.0 3.0 0.00 0.03 0.03 72 1015.9
20260905053503 54 344 0.0 3.0 0.00 0.03 0.03 72 1015.7
20260905053004 54 344 1.0 2.0 0.00 0.03 0.03 71 1015.7
20260905052503 54 344 0.0 3.0 0.00 0.03 0.03 71 1015.8
20260905052003 55 344 1.0 3.0 0.00 0.03 0.03 70 1015.8
20260905051503 55 344 0.0 2.0 0.00 0.03 0.03 70 1015.8
20260905051002 54 344 0.0 2.0 0.00 0.03 0.03 72 1015.8
20260905050503 54 344 0.0 2.0 0.00 0.03 0.03 72 1015.7
20260905050002 54 344 0.0 1.0 0.00 0.03 0.03 73 1015.8
20260905045501 54 344 0.0 1.0 0.00 0.03 0.03 73 1015.7
20260905045100 54 344 0.0 1.0 0.00 0.03 0.03 74 1015.7
20260905044609 53 344 0.0 1.0 0.00 0.03 0.03 75 1015.7
20260905044100 53 344 0.0 2.0 0.00 0.03 0.03 75 1015.7
20260905043600 53 344 0.0 2.0 0.00 0.03 0.03 75 1015.7
20260905043100 53 344 1.0 2.0 0.00 0.03 0.03 74 1015.7
20260905042602 53 344 0.0 1.0 0.00 0.03 0.03 74 1015.6
20260905042059 54 344 0.0 1.0 0.00 0.03 0.03 72 1015.6
20260905041601 54 344 0.0 3.0 0.00 0.03 0.03 71 1015.6
20260905041059 55 344 0.0 3.0 0.00 0.03 0.03 70 1015.6
20260905040559 54 344 0.0 2.0 0.00 0.03 0.03 72 1015.5
20260905040059 54 344 0.0 2.0 0.00 0.03 0.03 72 1015.5
20260905035559 54 344 0.0 3.0 0.00 0.03 0.03 73 1015.5
20260905035057 55 344 1.0 2.0 0.00 0.03 0.03 72 1015.4
20260905034603 55 344 0.0 1.0 0.00 0.03 0.03 71 1015.3
20260905034055 55 344 0.0 0.0 0.00 0.03 0.03 71 1015.2
20260905033556 56 344 0.0 0.0 0.00 0.03 0.03 70 1015.2
20260905033055 56 344 0.0 0.0 0.00 0.03 0.03 70 1015.2
20260905032555 56 344 0.0 1.0 0.00 0.03 0.03 70 1015.2
20260905032055 56 344 0.0 2.0 0.00 0.03 0.03 70 1015.1
20260905031559 56 344 0.0 2.0 0.00 0.03 0.03 71 1015.0
20260905031054 57 344 0.0 2.0 0.00 0.03 0.03 72 1015.0
20260905030553 57 344 0.0 2.0 0.00 0.03 0.03 72 1015.0
20260905030059 57 344 0.0 2.0 0.00 0.03 0.03 73 1015.0
20260905025552 57 344 0.0 1.0 0.00 0.03 0.03 73 1015.0
20260905025052 57 344 0.0 2.0 0.00 0.03 0.03 72 1014.8
20260905024559 58 344 0.0 2.0 0.00 0.03 0.03 72 1014.8
20260905024051 58 344 0.0 4.0 0.00 0.03 0.03 71 1014.7
20260905023551 58 344 0.0 4.0 0.00 0.03 0.03 71 1014.7
20260905023051 58 341 0.0 2.0 0.00 0.03 0.03 71 1014.8
20260905022550 58 341 0.0 2.0 0.00 0.03 0.03 71 1014.8
20260905022050 58 341 0.0 2.0 0.00 0.03 0.03 70 1014.7
20260905021550 58 341 0.0 1.0 0.00 0.03 0.03 69 1014.8
20260905021050 58 341 0.0 2.0 0.00 0.03 0.03 69 1014.7
20260905020550 59 341 0.0 2.0 0.00 0.03 0.03 67 1014.6
20260905020049 59 319 0.0 3.0 0.00 0.03 0.03 67 1014.5
20260905015548 60 319 0.0 3.0 0.00 0.03 0.03 65 1014.5
20260905015048 60 256 0.0 5.0 0.00 0.03 0.03 64 1014.4
20260905014547 60 258 0.0 6.0 0.00 0.03 0.03 64 1014.4
20260905014046 61 264 1.0 8.0 0.00 0.03 0.03 63 1014.3
20260905013549 61 348 2.0 8.0 0.00 0.03 0.03 63 1014.3
20260905013047 61 277 2.0 8.0 0.00 0.03 0.03 62 1014.3
20260905012547 61 260 3.0 8.0 0.00 0.03 0.03 62 1014.2
20260905012045 61 269 1.0 9.0 0.00 0.03 0.03 62 1014.3
20260905011545 61 270 1.0 9.0 0.00 0.03 0.03 62 1014.1
20260905011044 61 257 2.0 10.0 0.00 0.03 0.03 63 1014.2
20260905010545 61 191 2.0 10.0 0.00 0.03 0.03 62 1014.1
20260905010046 61 250 3.0 12.0 0.00 0.03 0.03 62 1014.1
20260905005545 61 337 1.0 12.0 0.00 0.03 0.03 62 1014.0
20260905005044 61 258 2.0 14.0 0.00 0.03 0.03 62 1014.1
20260905004547 62 267 5.0 14.0 0.00 0.03 0.03 63 1014.0
20260905004047 62 268 3.0 12.0 0.00 0.03 0.03 62 1014.0
20260905003543 62 267 3.0 12.0 0.00 0.03 0.03 63 1013.9
20260905003046 62 306 3.0 14.0 0.00 0.03 0.03 63 1013.9
20260905002543 62 250 5.0 15.0 0.00 0.03 0.03 63 1013.8
20260905002044 62 276 6.0 17.0 0.00 0.03 0.03 63 1013.8
20260905001543 62 271 6.0 17.0 0.00 0.03 0.03 64 1013.8
20260905001043 62 276 8.0 17.0 0.00 0.03 0.03 63 1013.7
20260905000542 62 262 5.0 17.0 0.00 0.03 0.03 62 1013.7
20260905000042 63 221 5.0 17.0 0.00 0.03 0.03 63 1013.6
20260904235542 63 258 5.0 12.0 0.00 0.03 0.03 63 1013.6
20260904235045 63 217 5.0 12.0 0.00 0.03 0.03 63 1013.6
20260904234541 63 279 5.0 12.0 0.00 0.03 0.03 63 1013.6
20260904234040 63 267 5.0 15.0 0.00 0.03 0.03 67 1013.6
20260904233541 63 275 9.0 15.0 0.00 0.03 0.03 66 1013.6
20260904233041 63 247 7.0 13.0 0.00 0.03 0.03 66 1013.6
20260904232541 63 268 8.0 14.0 0.00 0.03 0.03 66 1013.5
20260904232040 63 269 6.0 12.0 0.00 0.03 0.03 64 1013.6
20260904231541 63 263 3.0 11.0 0.00 0.03 0.03 62 1013.6
20260904231040 63 281 4.0 11.0 0.00 0.03 0.03 63 1013.5
20260904230540 63 262 2.0 8.0 0.00 0.03 0.03 63 1013.6
20260904230101 63 265 2.0 9.0 0.00 0.03 0.03 61 1013.6
20260904225539 63 266 2.0 7.0 0.00 0.03 0.03 54 1013.6
20260904225039 63 266 1.0 5.0 0.00 0.03 0.03 54 1013.6
20260904224539 63 266 1.0 9.0 0.00 0.03 0.03 57 1013.6
20260904224043 63 267 2.0 9.0 0.00 0.03 0.03 60 1013.6
20260904223542 63 254 3.0 13.0 0.00 0.03 0.03 61 1013.5
20260904223039 64 251 6.0 13.0 0.00 0.03 0.03 61 1013.5
20260904222537 64 258 5.0 10.0 0.00 0.03 0.03 58 1013.5
20260904222038 65 265 3.0 7.0 0.00 0.03 0.03 58 1013.4
20260904221538 65 248 1.0 9.0 0.00 0.03 0.03 58 1013.3
20260904221038 65 248 3.0 9.0 0.00 0.03 0.03 57 1013.4
20260904220538 66 256 4.0 8.0 0.00 0.03 0.03 56 1013.4
20260904220038 66 250 4.0 7.0 0.00 0.03 0.03 52 1013.4
20260904215539 66 255 4.0 8.0 0.00 0.03 0.03 53 1013.4
20260904215036 66 246 2.0 5.0 0.00 0.03 0.03 51 1013.4
20260904214536 66 242 2.0 5.0 0.00 0.03 0.03 53 1013.4
20260904214036 66 242 3.0 5.0 0.00 0.03 0.03 49 1013.3
20260904213536 66 242 3.0 5.0 0.00 0.03 0.03 52 1013.3
20260904213036 66 242 3.0 5.0 0.00 0.03 0.03 50 1013.3
20260904212536 65 242 3.0 5.0 0.00 0.03 0.03 51 1013.2
20260904212037 65 242 3.0 5.0 0.00 0.03 0.03 52 1013.2
20260904211536 65 242 1.0 5.0 0.00 0.03 0.03 51 1013.2
20260904211036 66 242 3.0 5.0 0.00 0.03 0.03 52 1013.2
20260904210536 66 242 3.0 5.0 0.00 0.03 0.03 49 1013.1
20260904210035 66 242 2.0 4.0 0.00 0.03 0.03 50 1013.1
20260904205535 66 242 2.0 4.0 0.00 0.03 0.03 51 1013.1
20260904205035 67 242 2.0 6.0 0.00 0.03 0.03 48 1013.2
20260904204535 67 242 3.0 7.0 0.00 0.03 0.03 46 1013.1
20260904204036 70 236 5.0 7.0 0.00 0.03 0.03 46 1013.2
20260904203537 69 237 5.0 7.0 0.00 0.03 0.03 49 1013.2
20260904203034 67 237 4.0 7.0 0.00 0.03 0.03 54 1013.2
20260904202534 66 237 4.0 7.0 0.00 0.03 0.03 57 1013.2
20260904202033 66 237 3.0 7.0 0.00 0.03 0.03 57 1013.3
20260904201533 66 238 4.0 7.0 0.00 0.03 0.03 59 1013.3
20260904201033 64 235 3.0 6.0 0.00 0.03 0.03 61 1013.3
20260904200533 63 235 2.0 4.0 0.00 0.03 0.03 63 1013.4
20260904200033 63 235 3.0 4.0 0.00 0.03 0.03 60 1013.4
20260904195535 64 235 2.0 5.0 0.00 0.03 0.03 62 1013.5
20260904195033 64 234 2.0 6.0 0.00 0.03 0.03 61 1013.6
20260904194533 63 234 4.0 6.0 0.00 0.03 0.03 61 1013.7
20260904194032 62 231 3.0 6.0 0.00 0.03 0.03 60 1013.7
20260904193534 62 219 3.0 5.0 0.00 0.03 0.03 62 1013.8
20260904193038 63 218 3.0 5.0 0.00 0.03 0.03 62 1013.8
20260904192531 64 217 2.0 4.0 0.00 0.03 0.03 57 1013.9
20260904192034 66 217 2.0 5.0 0.00 0.03 0.03 60 1013.9
20260904191532 68 217 3.0 5.0 0.00 0.03 0.03 53 1014.0
20260904191031 69 218 2.0 6.0 0.00 0.03 0.03 52 1014.0
20260904190529 68 223 3.0 6.0 0.00 0.03 0.03 62 1014.0
20260904190037 63 223 2.0 4.0 0.00 0.03 0.03 67 1014.1
20260904185526 62 225 1.0 3.0 0.00 0.03 0.03 72 1014.2
20260904185026 59 225 0.0 3.0 0.00 0.03 0.03 68 1014.2
20260904184528 59 225 1.0 5.0 0.00 0.03 0.03 67 1014.2
20260904184026 60 225 2.0 5.0 0.00 0.03 0.03 72 1014.2
20260904183526 60 225 1.0 4.0 0.00 0.03 0.03 71 1014.2
20260904183026 58 225 0.0 3.0 0.00 0.03 0.03 69 1014.2
20260904182527 59 225 1.0 3.0 0.00 0.03 0.03 68 1014.2
20260904182024 59 225 1.0 3.0 0.00 0.03 0.03 69 1014.1
20260904181524 59 225 1.0 2.0 0.00 0.03 0.03 73 1014.1
20260904181024 58 225 0.0 1.0 0.00 0.03 0.03 71 1014.1
20260904180524 57 225 0.0 2.0 0.00 0.03 0.03 67 1014.1
20260904180024 58 225 0.0 1.0 0.00 0.03 0.03 74 1014.1
20260904175523 57 225 0.0 2.0 0.00 0.03 0.03 70 1014.1
20260904175026 57 225 0.0 4.0 0.00 0.03 0.03 71 1014.1
20260904174523 57 225 0.0 4.0 0.00 0.03 0.03 70 1014.2
20260904174024 57 225 1.0 4.0 0.00 0.03 0.03 75 1014.2
20260904173522 57 225 0.0 4.0 0.00 0.03 0.03 72 1014.2
20260904173023 58 225 1.0 6.0 0.00 0.03 0.03 73 1014.2
20260904172522 58 225 2.0 6.0 0.00 0.03 0.03 74 1014.1
20260904172021 58 225 3.0 5.0 0.00 0.03 0.03 72 1014.1
20260904171522 59 225 2.0 7.0 0.00 0.03 0.03 72 1014.1
20260904171024 60 225 5.0 7.0 0.00 0.03 0.03 71 1014.1
20260904170521 61 224 4.0 7.0 0.00 0.03 0.03 70 1014.1
20260904170020 58 229 3.0 6.0 0.00 0.03 0.03 77 1014.1
20260904165519 57 234 3.0 6.0 0.00 0.03 0.03 74 1014.0
20260904165019 57 234 3.0 5.0 0.00 0.03 0.03 77 1014.1
20260904164519 57 230 3.0 5.0 0.00 0.03 0.03 75 1014.1
20260904164017 56 229 1.0 4.0 0.00 0.03 0.03 76 1014.0
20260904163518 57 229 2.0 4.0 0.00 0.03 0.03 76 1014.0
20260904163020 57 210 2.0 4.0 0.00 0.03 0.03 79 1014.0
20260904162517 57 221 2.0 5.0 0.00 0.03 0.03 79 1014.0
20260904162016 58 221 2.0 5.0 0.00 0.03 0.03 78 1014.0
20260904161515 57 221 1.0 4.0 0.00 0.03 0.03 79 1014.1
20260904161016 57 221 3.0 4.0 0.00 0.03 0.03 81 1014.1
20260904160514 57 246 2.0 4.0 0.00 0.03 0.03 81 1014.1
20260904160016 56 61 0.0 2.0 0.00 0.03 0.03 77 1014.1
20260904155513 57 61 0.0 3.0 0.00 0.03 0.03 79 1014.1
20260904155011 56 61 0.0 3.0 0.00 0.03 0.03 81 1014.1
20260904154509 55 61 0.0 2.0 0.00 0.03 0.03 83 1014.1
20260904154008 54 61 0.0 2.0 0.00 0.03 0.03 84 1014.1
20260904153506 53 61 0.0 2.0 0.00 0.03 0.03 85 1014.0
20260904153005 52 61 0.0 0.0 0.00 0.03 0.03 85 1014.0
20260904152503 51 61 0.0 0.0 0.00 0.03 0.03 85 1014.0
20260904152003 50 61 0.0 0.0 0.00 0.03 0.03 85 1013.9
20260904151502 50 61 0.0 0.0 0.00 0.03 0.03 85 1013.9
20260904151105 50 61 0.0 2.0 0.00 0.03 0.03 85 1013.9
20260904150600 50 61 0.0 2.0 0.00 0.03 0.03 84 1013.8
20260904150109 50 61 0.0 2.0 0.01 0.03 0.03 84 1013.8
20260904145558 50 61 0.0 1.0 0.01 0.03 0.03 85 1013.8
20260904145057 50 61 0.0 2.0 0.01 0.03 0.03 85 1013.7
20260904144555 49 61 0.0 2.0 0.01 0.03 0.03 85 1013.7
20260904144053 49 61 0.0 2.0 0.01 0.03 0.03 85 1013.7
20260904143553 49 61 0.0 2.0 0.01 0.03 0.03 85 1013.6
20260904143052 49 61 0.0 1.0 0.02 0.03 0.03 85 1013.5
20260904142552 49 61 0.0 1.0 0.02 0.03 0.03 85 1013.5
20260904142051 49 61 0.0 2.0 0.02 0.03 0.03 85 1013.3
20260904141555 49 61 0.0 2.0 0.02 0.03 0.03 85 1013.4
20260904141050 49 61 0.0 2.0 0.02 0.03 0.03 85 1013.3
20260904140549 49 61 0.0 2.0 0.02 0.03 0.03 85 1013.3
20260904135549 48 61 0.0 0.0 0.01 0.02 0.02 85 1013.1
20260904135045 48 61 0.0 1.0 0.01 0.02 0.02 84 1013.1
20260904134548 48 61 0.0 2.0 0.01 0.02 0.02 84 1013.1
20260904134043 48 61 0.0 1.0 0.01 0.02 0.02 84 1012.9
20260904133542 48 61 0.0 2.0 0.01 0.02 0.02 84 1012.9
20260904133042 48 61 0.0 2.0 0.00 0.01 0.01 84 1012.8
20260904132542 48 61 0.0 3.0 0.00 0.01 0.01 84 1012.8
20260904132041 48 58 0.0 3.0 0.00 0.01 0.01 84 1012.8
20260904131541 48 46 0.0 3.0 0.00 0.01 0.01 84 1012.8
20260904131040 48 46 0.0 1.0 0.00 0.01 0.01 84 1012.8
20260904130540 48 46 0.0 0.0 0.00 0.01 0.01 83 1012.7
20260904130056 48 46 0.0 0.0 0.00 0.01 0.01 83 1012.7
20260904125539 48 46 0.0 0.0 0.00 0.01 0.01 83 1012.6
20260904125038 48 46 0.0 0.0 0.00 0.01 0.01 83 1012.7
20260904124545 48 46 0.0 1.0 0.00 0.01 0.01 83 1012.6
20260904124043 48 46 0.0 2.0 0.00 0.01 0.01 83 1012.6
20260904123540 48 46 0.0 2.0 0.00 0.01 0.01 84 1012.6
20260904123037 48 46 0.0 1.0 0.00 0.01 0.01 84 1012.6
20260904122536 48 46 0.0 1.0 0.00 0.01 0.01 84 1012.5
20260904122035 48 46 0.0 1.0 0.00 0.01 0.01 84 1012.5
20260904121536 48 46 0.0 0.0 0.00 0.01 0.01 84 1012.4
20260904121038 48 46 0.0 0.0 0.00 0.01 0.01 84 1012.4
20260904120535 48 46 0.0 1.0 0.00 0.01 0.01 84 1012.4
20260904120038 48 46 0.0 1.0 0.00 0.01 0.01 84 1012.4
20260904115534 48 46 0.0 1.0 0.00 0.01 0.01 84 1012.4
20260904115033 48 46 0.0 1.0 0.00 0.01 0.01 84 1012.3
20260904114533 48 46 0.0 1.0 0.00 0.01 0.01 84 1012.2
20260904114036 48 46 0.0 1.0 0.00 0.01 0.01 84 1012.2
20260904113532 48 46 0.0 1.0 0.01 0.01 0.01 84 1012.3
20260904113037 48 46 0.0 2.0 0.01 0.01 0.01 84 1012.2
20260904112531 48 46 0.0 2.0 0.01 0.01 0.01 84 1012.2
20260904112029 48 46 0.0 1.0 0.01 0.01 0.01 84 1012.1
20260904111529 48 46 0.0 1.0 0.01 0.01 0.01 83 1012.1